User: anonymous   Login
Location: Abraham Lincoln Continuation High School
(33.9711°N, 117.3662°W)
Time: 09:31:26
(UTC+00:00)
Language:

Cosmos 1842 - Orbit

View from above orbital plane
View from above orbital plane
View from above satellite
View from above satellite

Ground track
Ground track

The orbit data is extracted from the following two-line orbital elements,

1 17911U 87038A   21209.89530619  .00000761  00000-0  41646-4 0  9999
2 17911  82.5226 162.4702 0013000 103.5191 256.7489 15.12699588868571
Epoch (UTC): 28 July 2021 21:29:14
Eccentricity: 0.0013000
inclination: 82.5226°
perigee height: 519 km
apogee height: 537 km
right ascension of ascending node: 162.4702°
argument of perigee: 103.5191°
revolutions per day: 15.12699588
mean anomaly at epoch: 256.7489°
orbit number at epoch: 86857

The dashed part of the orbit path shows where the satellite is in the earth's shadow,  

DLR